RH
77 75 87 88 90 91 93 95 88 96 99 91 76 91 98 99 100 100 100 100 99 99 81 58 60 53 52 50 68 62 57 61 73 68 73 64 58 46 42 63 83 81 89 92 80 96 91 42 40 47 45 34 30 30
77 74 78 91 91 88 89 89 82 92 94 99 98 87 100 98 93 96 100 100 100 100 100 99 88 80 69 63 61 58 45 61 64 88 92 83 85 82 51 55 45 66 61 74 70 67 44 38 35 32 28 27 28 27
92 80 72 75 84 84 89 89 88 81 95 97 97 98 100 100 100 100 99 100 100 100 99 99 98 99 97 94 84 77 61 61 72 78 88 96 86 78 77 69 49 48 47 50 42 39 29 22 21 21 20 20 22 25
91 88 69 68 74 81 88 91 88 91 96 82 97 100 98 99 99 100 100 100 100 99 98 98 98 96 98 99 93 98 97 97 96 98 91 94 89 59 76 50 47 47 47 52 39 20 20 21 19 20 23 24 24 28
80 87 73 66 68 76 67 75 86 89 96 90 83 96 99 99 99 100 99 99 100 99 98 98 97 97 98 98 98 99 98 95 91 88 91 91 61 63 62 59 69 40 37 31 31 17 15 19 26 25 19 19 27 31
76 86 84 68 66 72 75 60 77 61 64 96 86 93 99 99 98 99 98 99 99 99 98 97 97 98 97 98 98 98 98 96 71 69 76 66 64 62 87 84 43 35 26 23 23 24 20 23 24 19 21 23 23 28
82 78 90 70 68 69 74 64 58 88 86 96 86 94 98 99 99 97 98 98 99 99 94 97 95 98 98 98 98 98 92 88 69 68 72 69 64 62 92 84 37 26 26 28 28 28 28 24 26 25 23 27 34 35
75 80 88 71 69 67 69 68 57 87 86 52 63 86 99 98 97 82 88 97 86 75 81 95 92 88 89 94 95 92 84 78 80 85 76 74 70 78 95 68 45 37 30 27 26 25 25 27 27 24 28 35 38 35
81 80 75 64 71 68 62 65 59 54 92 79 99 98 98 97 97 96 88 90 82 77 79 84 88 98 80 82 87 84 87 95 84 92 85 77 91 93 58 48 39 32 30 26 28 33 33 30 26 28 35 41 43 36
78 79 59 61 71 66 62 60 60 52 55 66 99 98 97 98 98 96 94 87 71 70 71 91 70 94 78 77 78 78 82 94 98 87 80 96 91 47 53 43 37 35 34 34 38 38 29 26 30 36 42 45 38 36
79 63 59 58 66 69 64 60 71 58 66 85 97 97 97 98 96 96 90 86 83 93 80 76 68 83 76 86 90 78 96 96 96 90 91 96 93 67 47 44 44 44 41 35 32 29 27 33 39 42 44 40 38 42
53 55 66 62 63 77 70 73 79 55 74 96 97 96 97 96 96 95 96 91 92 91 78 80 81 72 71 70 68 86 92 91 90 84 93 96 80 49 49 34 33 28 25 24 26 32 36 42 44 43 42 39 42 53
75 59 59 58 70 73 78 78 81 75 71 72 82 86 96 92 95 85 90 91 95 74 86 83 94 64 69 68 93 94 90 95 85 99 93 84 52 38 32 27 25 26 28 30 35 39 46 48 45 41 42 42 54 63
73 58 64 67 73 76 70 69 77 62 81 75 92 88 90 97 95 93 89 93 82 75 77 78 89 83 87 92 97 94 96 90 100 100 94 88 38 34 30 29 30 29 32 34 42 50 53 53 46 41 44 57 68 81
57 68 66 68 73 77 80 90 90 86 87 95 96 98 100 97 93 88 81 78 85 79 74 82 86 81 97 96 96 91 95 100 89 84 76 50 36 31 31 31 30 33 41 47 54 55 48 44 46 53 64 78 86 92
60 71 70 84 80 77 94 99 95 86 88 98 99 96 93 92 98 76 90 89 86 76 76 71 98 96 100 96 95 95 88 90 75 87 48 44 32 29 33 37 42 48 53 56 54 49 49 52 64 78 85 88 90 97
78 71 82 80 63 74 81 96 88 90 100 93 92 98 96 96 97 88 84 84 84 78 96 89 81 80 89 100 96 89 89 80 60 52 36 34 36 42 46 49 53 56 57 57 50 52 66 77 83 89 94 87 99 97
76 80 79 74 56 74 76 84 84 87 94 94 93 90 92 88 96 96 84 81 85 84 74 88 79 95 99 89 91 81 55 47 39 36 36 44 48 51 53 56 57 52 47 51 68 75 74 82 97 99 97 93 93 83
73 75 79 77 62 60 87 92 89 87 89 96 100 100 87 83 80 77 76 90 82 83 71 63 89 92 88 73 63 57 53 41 40 42 45 50 53 57 54 48 46 51 65 69 64 71 91 99 99 96 100 95 90 95
70 79 86 73 65 64 82 99 96 99 98 100 100 99 100 97 84 76 72 95 92 78 70 90 84 62 52 45 42 40 44 44 49 53 50 51 54 45 46 52 65 65 52 55 62 87 88 93 95 98 92 99 99 93
68 82 79 73 70 75 87 100 100 100 100 97 98 100 100 100 99 90 92 89 83 82 92 70 59 54 49 50 51 51 50 54 56 60 59 53 47 50 61 62 50 48 57 66 84 86 94 100 98 95 97 99 95 100
96 100 100 97 88 90 92 100 96 95 98 97 99 100 96 92 92 92 97 94 97 87 76 65 60 68 58 57 58 60 61 58 48 45 46 49 55 57 52 50 53 51 68 88 91 96 96 96 99 99 98 97 97 93
95 97 94 91 91 92 97 95 94 93 95 95 95 96 96 96 96 96 96 91 85 97 87 80 73 67 64 66 66 59 48 48 47 51 60 61 50 44 44 49 58 71 82 86 94 95 100 100 95 100 98 94 93 92
75 67 71 78 85 97 97 93 94 94 95 96 96 96 96 96 96 96 96 96 90 74 77 76 72 66 55 52 51 55 55 59 66 68 50 50 44 36 42 50 63 83 91 96 95 96 96 95 96 94 94 94 95 96
50 72 80 92 96 90 100 100 100 96 100 100 97 96 95 96 96 96 96 83 78 68 59 53 50 51 53 56 60 66 71 77 48 42 51 48 41 43 49 60 77 88 95 95 94 94 94 95 95 97 96 96 96 96
90 94 87 94 95 90 97 97 100 99 100 100 100 97 95 96 95 98 94 70 73 74 66 64 67 75 75 82 77 71 56 42 44 42 46 48 57 65 79 90 89 86 95 96 96 97 96 96 96 96 96 97 97 97
95 97 97 93 93 87 91 90 89 93 99 98 99 98 96 95 91 92 83 77 80 80 77 78 84 85 77 57 51 46 43 40 41 44 48 58 71 89 99 98 97 97 97 98 99 99 97 96 95 96 96 97 97 98
98 98 97 98 96 97 94 96 98 96 96 92 84 93 88 80 88 92 86 82 84 87 85 88 84 65 61 55 47 41 39 40 44 45 49 53 60 75 95 98 97 97 98 98 97 96 96 96 96 96 96 96 96 97
96 96 97 94 94 94 95 93 88 87 82 80 88 96 92 92 99 95 93 89 90 91 84 76 72 68 60 52 44 42 48 52 46 43 46 52 51 56 83 95 95 95 94 94 96 97 96 96 96 95 96 96 96 96
94 97 97 100 100 100 93 90 85 84 79 78 76 80 89 100 100 100 100 100 99 94 90 83 72 69 64 47 45 56 62 61 62 66 70 70 74 70 79 93 95 97 97 96 95 96 96 96 96 96 96 96 95 96
96 97 96 97 95 92 89 85 83 82 82 82 80 83 90 99 100 100 100 100 100 98 89 77 71 65 50 44 44 48 52 58 60 66 71 72 72 75 92 100 98 97 96 96 96 95 95 96 96 96 96 96 96 96
96 97 97 95 96 96 92 86 85 86 89 88 90 88 93 98 97 100 100 100 100 94 83 74 66 57 50 50 65 70 70 67 64 60 65 71 82 93 87 95 96 96 96 96 96 96 95 96 96 96 96 96 96 97
95 96 96 94 95 96 91 87 85 89 90 92 94 96 96 97 98 99 98 98 96 90 81 70 59 55 53 56 63 66 67 66 65 65 65 69 72 78 80 90 94 96 96 96 96 96 96 96 96 96 96 96 96 96
Wind_Speed
24 25 24 23 24 22 24 24 23 25 27 24 22 20 21 20 20 18 16 15 18 9 3 1 2 1 2 5 4 8 6 1 2 3 4 4 3 5 4 6 7 7 7 4 3 3 8 11 5 4 6 6 4 3
24 24 24 23 23 23 24 24 24 26 27 22 20 22 17 14 10 10 13 12 12 10 5 15 4 2 3 4 5 10 2 3 7 3 1 2 1 1 4 4 0 3 5 5 7 4 9 7 12 11 9 9 3 3
24 23 22 23 23 22 23 21 22 22 23 24 16 14 5 12 12 22 17 12 11 9 5 5 5 11 7 6 8 5 2 3 4 7 4 2 3 3 3 3 3 2 2 3 4 2 9 13 11 9 5 3 0 5
24 24 22 22 22 21 20 22 20 22 23 23 24 11 11 11 17 15 18 15 16 5 3 3 3 7 4 10 7 6 11 9 10 4 2 2 2 2 1 2 2 2 4 4 2 4 9 11 11 8 3 2 7 10
24 23 22 21 21 21 21 20 20 21 22 23 26 23 7 20 13 11 12 15 14 4 3 6 8 6 6 7 8 8 8 10 8 3 1 1 2 3 2 2 1 5 5 4 4 4 5 9 8 2 6 9 10 13
23 22 21 20 20 19 19 19 20 21 20 20 16 25 12 8 3 7 4 9 11 9 5 3 5 8 5 6 11 13 10 7 4 3 3 3 2 2 2 2 6 6 7 7 6 7 6 5 2 8 8 11 16 22
22 22 19 19 18 18 17 18 19 20 20 21 11 16 5 9 8 4 1 2 12 12 5 3 3 3 13 10 10 10 8 5 3 3 2 3 1 3 2 3 4 5 6 6 5 3 2 3 2 7 10 14 22 27
20 19 18 17 17 16 16 16 18 18 20 19 10 13 8 9 9 8 8 10 11 6 5 3 2 3 4 3 4 4 4 4 3 2 2 3 3 2 1 8 7 5 5 5 5 3 3 5 8 11 14 22 26 29
18 18 17 15 15 14 14 14 16 17 15 15 12 10 14 9 4 10 11 10 4 2 4 3 3 3 4 4 4 3 2 2 2 2 1 1 0 2 5 6 4 9 7 5 7 6 6 9 11 16 24 25 26 28
17 16 15 14 14 13 13 13 13 15 13 10 6 1 3 5 19 18 5 3 1 2 4 3 5 2 4 3 3 3 2 1 2 0 1 2 3 21 9 7 6 7 7 6 7 8 8 11 18 27 26 27 25 27
13 12 13 13 13 13 12 10 10 12 9 6 5 3 9 17 7 4 2 2 1 3 3 4 5 4 3 3 2 2 1 1 2 2 2 2 3 3 2 3 8 15 14 9 7 7 9 19 25 28 29 25 25 30
11 10 11 12 12 11 8 7 7 7 4 1 3 6 5 3 3 3 2 3 2 2 3 5 5 5 5 3 5 3 3 3 1 1 3 2 3 4 4 5 7 8 5 5 4 12 20 23 23 24 25 27 30 32
13 10 9 9 7 7 4 4 3 1 2 3 3 2 2 2 3 3 2 3 2 5 6 9 2 5 4 3 5 3 4 1 1 3 2 4 3 1 7 8 5 2 3 7 12 20 21 23 23 22 25 29 32 34
10 9 7 6 4 4 5 4 3 2 0 1 2 3 3 3 1 1 2 3 1 9 20 15 6 4 3 3 2 5 1 3 3 2 4 3 4 3 8 4 1 6 10 15 20 22 23 23 24 24 27 29 32 31
6 4 4 4 4 2 5 6 6 5 2 3 3 1 1 2 3 2 5 5 6 20 15 10 8 5 2 4 2 4 4 0 4 4 3 5 5 3 1 5 10 17 17 19 21 22 23 25 27 29 28 28 27 27
3 3 1 5 5 4 5 10 10 4 2 3 3 2 1 2 1 2 5 13 18 19 8 5 4 4 2 4 4 4 5 5 3 3 1 4 3 6 9 11 14 16 17 19 21 24 27 28 27 27 26 26 24 22
6 4 8 8 6 8 9 18 10 3 3 2 3 2 2 3 4 3 6 10 17 7 1 4 4 5 2 3 1 3 5 3 8 6 1 5 9 12 13 14 16 17 19 22 25 26 25 26 25 24 24 25 22 24
8 8 8 7 7 9 7 4 3 2 2 2 2 4 1 2 3 3 3 12 10 2 3 2 6 3 4 5 3 3 6 4 4 2 7 10 12 12 13 15 16 18 21 24 22 24 24 23 21 21 24 23 25 27
9 9 8 7 5 3 3 3 2 2 1 1 1 1 1 0 2 1 5 16 6 3 3 3 4 2 3 5 4 8 8 4 3 7 11 12 10 11 14 15 18 21 21 22 22 21 20 19 21 22 20 23 22 21
11 10 8 7 6 3 3 2 2 3 3 2 3 3 2 2 1 2 6 13 7 4 1 1 3 3 3 4 5 6 2 6 9 13 14 12 12 14 16 21 20 21 20 20 21 19 19 20 16 19 20 17 19 22
12 10 8 8 3 3 3 2 3 2 1 2 2 2 2 4 3 2 5 9 4 2 2 4 4 4 5 3 2 8 6 7 12 12 14 15 14 17 18 18 19 18 19 21 20 19 18 18 19 17 18 20 18 17
9 6 4 3 2 2 3 2 2 1 2 1 2 2 2 2 2 3 3 4 2 2 4 3 2 7 8 5 5 7 10 10 7 8 11 15 17 18 19 18 19 19 19 17 19 18 17 16 17 19 17 17 16 15
4 3 2 2 2 2 1 1 1 2 2 1 1 2 2 2 2 3 1 3 2 3 8 9 7 5 5 5 5 3 2 6 10 12 13 13 14 15 16 16 16 17 18 19 16 16 16 17 17 16 16 14 13 12
3 1 1 2 3 2 2 2 2 2 2 3 2 1 2 3 1 1 0 4 9 9 3 1 3 3 7 6 3 7 9 10 10 10 12 14 17 18 17 17 16 16 16 16 17 17 19 17 16 14 13 13 11 9
1 3 2 4 3 2 4 3 5 4 1 2 2 2 2 3 2 2 2 4 11 14 14 12 10 7 7 8 7 7 8 10 12 11 12 17 19 19 19 18 16 16 17 19 20 20 18 17 15 13 12 10 10 11
3 3 3 1 1 2 3 1 1 2 1 2 1 1 2 2 3 1 1 5 7 11 12 12 10 6 6 6 7 9 11 12 11 12 15 16 18 19 19 20 22 21 20 19 19 20 18 16 14 12 10 9 8 6
3 2 2 2 2 3 3 2 2 3 1 2 2 2 3 3 1 1 1 5 5 7 9 10 8 7 7 8 8 9 10 12 15 16 13 13 15 15 16 18 22 22 20 19 18 16 16 15 13 11 10 7 5 5
3 2 1 2 1 1 3 2 2 2 2 2 4 2 4 5 2 1 1 4 5 6 6 7 7 8 8 10 11 11 11 12 13 11 8 13 16 18 16 17 18 18 17 16 15 13 13 12 12 11 9 5 2 2
3 4 3 3 2 2 1 1 1 1 1 3 2 1 3 3 3 3 3 4 5 6 4 3 6 8 9 11 11 10 14 18 21 22 23 25 26 25 23 24 25 25 22 18 12 11 10 10 10 10 7 2 1 2
3 4 2 2 2 1 1 0 1 1 2 2 3 5 6 7 6 5 4 3 2 3 6 8 10 9 9 10 8 13 17 20 22 24 25 26 27 26 26 29 31 27 21 17 13 10 7 6 5 6 4 2 4 4
4 2 1 0 1 1 2 3 3 2 1 1 3 3 6 7 7 8 6 4 5 7 6 6 8 9 10 11 13 17 19 21 22 21 21 21 23 25 28 28 26 22 18 15 12 10 9 6 6 6 3 2 6 5
3 2 3 2 1 2 3 2 2 2 2 2 3 4 4 3 3 3 11 8 4 6 9 10 9 9 12 12 15 18 20 21 22 23 24 23 24 24 25 24 23 20 17 14 11 9 8 6 6 6 3 1 5 6
3 3 2 2 1 1 2 1 2 2 3 3 3 4 3 3 3 4 8 11 8 11 11 12 10 10 12 9 11 15 18 20 20 21 21 21 21 22 24 24 24 21 17 14 11 10 8 5 4 5 4 2 4 6
Wind_Direction
319 321 323 325 331 325 323 329 318 311 332 310 299 302 295 249 242 226 221 232 233 209 238 150 203 213 175 155 150 151 107 230 90 175 161 195 168 211 151 161 171 162 156 174 173 214 262 151 109 173 145 126 119 93
315 314 317 319 321 328 325 325 328 320 326 320 310 307 281 223 240 245 222 234 223 207 214 219 224 152 103 113 126 164 106 129 168 113 137 116 119 45 153 200 231 170 175 176 183 204 125 143 126 128 142 139 143 323
311 311 311 313 316 319 328 324 326 327 316 332 307 302 309 232 234 223 224 225 211 207 200 183 188 202 175 190 198 166 109 97 91 72 98 170 186 140 160 232 136 91 123 134 130 82 129 129 136 142 135 122 269 311
308 307 309 308 310 315 318 326 326 331 328 310 340 288 271 243 222 224 215 224 210 156 130 80 103 165 176 192 163 189 170 154 166 120 67 154 143 27 173 116 152 184 132 137 66 167 127 144 148 151 152 310 313 315
303 303 304 305 305 309 316 321 321 323 331 329 301 346 223 228 227 231 243 219 208 168 104 124 103 79 94 165 161 173 154 122 134 129 97 179 96 91 46 58 297 193 172 156 204 178 133 157 154 183 321 324 319 315
298 300 299 301 302 304 309 316 322 324 325 324 321 307 240 248 259 177 159 211 199 150 120 111 89 61 91 79 146 122 121 122 163 126 108 98 116 132 107 184 260 221 150 144 145 138 143 160 283 320 320 318 319 320
294 294 293 296 300 300 304 312 318 325 323 323 311 311 240 221 185 133 81 168 156 153 95 110 89 81 109 94 95 104 132 130 111 109 87 128 112 136 98 179 261 188 175 168 183 199 222 248 296 303 308 316 318 312
293 290 290 291 297 299 301 308 316 324 329 333 314 316 239 146 114 101 104 139 118 92 106 107 85 88 119 97 88 108 108 119 82 100 100 91 119 72 256 241 203 132 159 194 213 222 245 280 293 297 308 317 318 315
292 289 289 287 293 296 300 305 312 321 329 334 334 280 173 164 104 122 124 129 85 94 103 95 127 137 130 97 101 97 114 77 66 79 68 111 100 229 230 225 202 195 190 166 178 204 233 271 292 307 315 318 316 313
295 284 287 286 290 286 293 300 309 320 322 308 324 74 92 78 128 123 125 183 154 50 69 83 112 109 141 139 92 98 53 92 89 51 86 105 245 245 253 220 197 179 188 202 202 243 270 286 308 313 314 313 312 313
289 283 287 287 280 284 290 301 304 319 340 335 348 47 128 140 110 83 91 75 47 35 70 98 110 121 114 108 119 60 144 8 81 274 122 305 277 262 45 192 233 227 228 247 252 272 295 311 314 310 306 305 308 316
296 287 290 294 289 289 290 292 301 318 331 324 87 90 123 62 75 83 38 345 64 144 101 99 103 120 104 96 95 25 106 33 141 325 69 300 256 241 205 148 129 131 167 219 267 315 314 310 309 304 301 306 314 317
297 290 284 293 292 294 265 258 276 198 50 78 39 54 26 7 76 101 173 312 69 162 154 153 121 100 103 92 79 81 74 185 43 49 230 230 275 106 139 132 129 157 278 270 301 312 312 312 311 307 306 311 315 315
293 292 288 286 269 261 226 209 195 216 218 11 2 12 112 356 337 138 154 171 121 147 140 124 92 99 111 66 123 85 256 74 50 44 243 263 310 216 191 181 121 330 306 301 311 316 314 312 311 310 311 312 314 314
299 307 288 250 264 224 215 210 185 166 53 49 8 15 307 69 72 119 118 127 128 145 135 111 82 92 22 85 63 96 37 328 197 224 232 4 77 111 289 271 294 315 311 306 312 313 315 314 312 312 314 313 315 316
210 227 240 144 139 121 151 188 160 101 55 53 44 17 39 81 14 125 127 133 147 148 118 76 82 60 19 128 73 197 114 208 242 214 134 81 42 330 320 313 307 312 314 314 316 316 314 313 313 312 312 316 318 316
173 132 149 144 130 122 95 134 115 51 67 61 51 342 45 53 84 119 138 149 159 141 92 104 81 200 98 50 11 185 193 211 128 140 130 335 330 329 328 323 324 321 317 315 314 313 313 314 313 311 314 323 319 317
130 130 154 152 136 138 104 77 89 106 88 96 63 43 181 0 106 114 154 161 159 170 137 168 123 83 151 156 250 236 180 172 126 35 343 337 331 328 322 317 317 315 314 314 316 315 315 317 315 313 318 316 314 321
119 133 132 143 133 90 73 52 39 98 161 33 18 244 159 119 213 321 184 173 157 145 119 130 77 174 215 208 210 155 144 118 338 337 330 333 330 319 315 314 314 317 318 317 319 320 317 312 309 313 314 317 322 324
117 123 129 145 131 70 74 42 64 46 33 16 44 42 86 105 119 138 158 170 169 170 199 126 211 214 196 168 161 134 17 347 329 318 316 323 323 320 322 321 321 318 318 321 322 322 323 320 326 318 323 326 318 319
134 131 144 153 110 68 81 70 58 64 347 52 3 66 19 113 97 107 157 180 186 233 251 242 239 133 120 150 275 316 324 313 311 307 313 317 323 321 321 320 318 323 324 326 328 331 329 325 323 331 326 321 324 322
135 118 123 133 52 80 77 81 83 58 46 47 39 59 78 97 117 158 120 187 251 264 225 218 192 294 280 294 311 308 308 308 308 311 307 312 322 328 329 328 328 327 330 332 331 328 327 330 331 319 320 324 324 327
134 162 98 105 81 62 49 74 45 45 69 6 89 91 31 60 46 148 182 213 247 301 272 272 275 277 292 304 304 291 330 329 326 326 328 330 330 330 329 333 332 333 333 336 336 334 331 329 329 331 326 328 331 336
87 78 62 62 45 62 58 55 43 30 39 17 350 77 25 12 84 93 278 15 2 336 329 308 284 97 103 102 31 354 350 353 352 340 340 338 338 341 339 338 340 340 337 335 337 334 333 335 336 336 338 337 339 341
347 15 16 34 61 93 36 9 356 43 23 325 52 6 14 5 66 54 51 38 48 61 70 69 55 38 17 352 346 5 359 354 351 350 347 347 344 339 339 341 344 348 348 343 337 335 337 341 343 341 340 341 344 348
76 16 45 102 347 87 179 63 267 223 117 20 296 336 6 62 59 19 15 18 30 37 39 32 29 18 24 35 15 6 359 356 357 356 357 353 345 339 342 343 345 350 346 338 334 334 335 338 341 345 349 353 353 346
66 337 50 67 81 122 90 92 111 100 95 189 244 43 61 65 15 15 99 34 19 17 29 30 31 28 13 14 9 4 6 5 4 357 358 5 358 357 351 349 343 339 339 339 333 327 327 333 339 344 346 359 11 25
68 33 95 12 68 69 128 82 123 187 239 161 141 62 127 170 201 54 56 4 10 25 18 14 12 11 12 11 12 12 4 360 357 1 12 13 13 6 359 351 348 348 342 338 337 331 327 328 331 338 343 349 30 52
29 1 338 23 53 52 63 150 205 113 100 174 121 134 110 85 88 115 73 63 48 31 359 3 15 12 7 10 6 4 2 3 3 6 6 2 359 1 360 357 358 358 354 351 351 336 328 325 326 332 337 330 161 128
4 351 12 32 77 272 40 131 61 109 145 132 108 110 105 107 85 80 62 47 16 14 17 7 2 5 11 11 17 16 15 13 10 5 358 355 351 350 355 358 356 350 347 346 347 350 341 330 334 332 325 209 175 157
336 338 338 325 284 19 339 316 277 251 224 132 148 113 123 138 109 69 49 46 45 30 0 6 5 10 8 16 20 14 13 12 7 1 354 349 350 354 355 352 348 348 350 351 352 353 354 355 358 6 24 170 188 177
317 344 346 355 52 347 353 27 89 105 101 107 88 109 123 116 92 75 24 26 22 5 12 10 12 17 15 18 16 11 5 1 357 357 357 356 353 354 353 353 354 356 357 356 354 354 355 357 5 13 24 118 178 189
309 322 296 299 300 32 14 23 87 87 73 74 67 76 75 77 90 39 19 17 20 13 13 13 13 14 10 6 3 4 4 2 359 358 356 358 359 357 356 358 0 0 360 360 358 357 359 1 7 17 27 90 151 172